Voltar ao catálogo

STARLINK-33585

AtivoComunicaçõesVLEO
NORAD 62782·PAYLOAD·🇺🇸 United States

Lançado Jan 21, 2025 de Vandenberg Space Force Base

Loading…

Próximas Passagens (próximas 24 horas)

TLE

AtualizadoSource: CelesTrak SupGP

Época: Sep 14, 2026, 22:58 UTC

1 62782C 25015AA  26257.95743056 -.00068055  00000+0 -21882-2 0  2574
2 62782  53.1571 161.4616 0001301  90.2698 325.3008 15.31739609    19

Acompanhe STARLINK-33585 em tempo real com AllMySat

Download on the App Store